Flag for Germany Weather past 2 weeks in Neuruppin, Brandenburg, Germany

Now
40 °F

Overcast.


Feels Like: 40 °F
Forecast: 38 / 49 °F
Wind: 1 mph from South

Location: Neuruppin

Current Time: Mar 27, 2015 at 1:29:32 AM

Latest Report: Mar 27, 2015 at 1:00 AM


Visibility: 6 mi

Pressure: 29.78 "Hg

Humidity: 92%

Dew point: 38 °F

Location of NeuruppinLocation

Historic Weather in Neuruppin — Graph

°F

Neuruppin temperature yesterday

Maximum temperature yesterday: 48 °F (at 12:00 AM)
Minimum temperature yesterday: 41 °F (at 11:00 PM)
Average temperature yesterday: 45 °F

Past Weeks' High & Low Weather Summary

 TemperatureHumidityPressure
High59 °F (Mar 17, 4:00 PM)97% (Mar 25, 7:00 AM)30.53 "Hg (Mar 25, 7:00 AM)
Low28 °F (Mar 20, 6:00 AM)22% (Mar 18, 3:00 PM)29.64 "Hg (Mar 26, 3:00 AM)
Average42 °F73%30.22 "Hg
* Reported Midnight between Mar 11 and Mar 12 — Midnight between Mar 26 and Mar 27, Neuruppin, Weather by CustomWeather, © 2015

Note: Actual official high and low records may vary slightly from our data, if they occured in-between our weather recording intervals... More about our weather records

Advertising

Neuruppin weather history for previous 24 hours

 ConditionsComfort  
Time TempWeatherWind HumidityBarometerVisibility
12:00 AM
Fri, Mar 27
41 °FOvercast.No wind91%29.78 "Hg6 mi
11:00 PM
Thu, Mar 26
41 °FOvercast.1 mph89%29.78 "Hg6 mi
10:00 PM41 °FOvercast.No wind86%29.78 "Hg6 mi
9:00 PM42 °FOvercast.1 mph84%29.78 "Hg7 mi
8:00 PM43 °FOvercast.1 mph84%29.77 "Hg6 mi
7:00 PM44 °FOvercast.1 mph80%29.78 "Hg6 mi
6:00 PM44 °FOvercast.3 mph77%29.77 "Hg6 mi
5:00 PM45 °FOvercast.3 mph76%29.76 "Hg6 mi
3:00 PM46 °FOvercast.3 mph75%29.73 "Hg6 mi
2:00 PM46 °FOvercast.6 mph81%29.73 "Hg4 mi
1:00 PM46 °FOvercast.5 mph80%29.73 "Hg5 mi
12:00 PM46 °FOvercast.5 mph81%29.72 "Hg6 mi
11:00 AM46 °FOvercast.5 mph82%29.71 "Hg6 mi
9:00 AM46 °FPartly sunny.2 mph82%29.70 "Hg2 mi
8:00 AM46 °FPassing clouds.3 mph81%29.68 "Hg3 mi
7:00 AM45 °FOvercast.2 mph84%29.67 "Hg4 mi
6:00 AM44 °FOvercast.1 mph87%29.65 "Hg4 mi
5:00 AM46 °FOvercast.1 mph82%29.66 "Hg4 mi
3:00 AM47 °FPassing clouds.2 mph78%29.64 "Hg4 mi
2:00 AM46 °FPassing clouds.3 mph78%29.65 "Hg4 mi
1:00 AM47 °FOvercast.2 mph75%29.66 "Hg6 mi
Weather by CustomWeather, © 2015

See weather overviewHow to use our weather pages